This is the latest recevied weather packets stored in our database for station/object N8DMH-13. If no packets are shown the sender has not sent any weather packets the latest 10 day(s).
| Time | Temp. | Humidity | Pressure | Rain* | Wind** | Luminosity | Snow |
|---|---|---|---|---|---|---|---|
| 1777920699 | 23.89° C | 31% | 994 hPa | 0 mm | - | - | - |
| 1777920399 | 23.89° C | 31% | 994.1 hPa | 0 mm | - | - | - |
| 1777920099 | 23.89° C | 30% | 994.1 hPa | 0 mm | - | - | - |
| 1777919769 | 23.89° C | 30% | 994 hPa | 0 mm | - | - | - |
| 1777919169 | 24.44° C | 31% | 994.1 hPa | 0 mm | - | - | - |
| 1777918839 | 23.89° C | 29% | 994.1 hPa | 0 mm | - | - | - |
| 1777918539 | 23.89° C | 29% | 994.3 hPa | 0 mm | - | - | - |
| 1777918209 | 23.89° C | 30% | 994.3 hPa | 0 mm | - | - | - |
| 1777917878 | 24.44° C | 30% | 994.2 hPa | 0 mm | - | - | - |
| 1777917578 | 23.89° C | 30% | 994.3 hPa | 0 mm | - | - | - |
| 1777917248 | 23.89° C | 30% | 994.4 hPa | 0 mm | - | - | - |
| 1777916949 | 23.89° C | 31% | 994.5 hPa | 0 mm | - | - | - |
| 1777916618 | 23.33° C | 28% | 994.4 hPa | 0 mm | - | - | - |
| 1777916289 | 23.33° C | 30% | 994.6 hPa | 0 mm | - | - | - |
| 1777915988 | 23.33° C | 30% | 994.5 hPa | 0 mm | - | - | - |
| 1777915658 | 23.33° C | 30% | 994.8 hPa | 0 mm | - | - | - |
| 1777915358 | 23.33° C | 30% | 994.9 hPa | 0 mm | - | - | - |
| 1777915028 | 23.33° C | 30% | 995 hPa | 0 mm | - | - | - |
| 1777914697 | 22.78° C | 29% | 995.1 hPa | 0 mm | - | - | - |
| 1777914367 | 22.78° C | 30% | 995.2 hPa | 0 mm | - | - | - |
| 1777914067 | 22.78° C | 29% | 995.2 hPa | 0 mm | - | - | - |
| 1777913767 | 22.78° C | 31% | 995.3 hPa | 0 mm | - | - | - |
| 1777913437 | 23.33° C | 30% | 995.3 hPa | 0 mm | - | - | - |
| 1777913137 | 22.78° C | 33% | 995.4 hPa | 0 mm | - | - | - |
| 1777912837 | 22.78° C | 33% | 995.4 hPa | 0 mm | - | - | - |
* Rain latest hour (hover to see other rain measurements)
** Current wind speed in m/s (hover to see current wind gust speed)